Regional Weather Roundup
Issued by NWS Cleveland, OH

Home | Current Version | Previous Version | Text Only | Print | Product List | Glossary On
Versions: 1 2 3 4 5 6 7 8 9 10 11 12 13 14 15 16 17 18 19 20 21 22 23 24 25 26 27 28 29 30 31 32 33 34 35 36 37 38 39 40 41 42 43 44 45 46 47 48 49 50
000
ASUS41 KCLE 220812
RWRCLE
OHIO REGIONAL WEATHER ROUNDUP
NATIONAL WEATHER SERVICE WILMINGTON, OH
300 AM EST SUN JAN 22 2017

NOTE: "FAIR" INDICATES FEW OR NO CLOUDS BELOW 12,000 FEET WITH NO
SIGNIFICANT WEATHER AND/OR OBSTRUCTIONS TO VISIBILITY.

OHZ001>008-015>018-024>027-034-035-043-044-220900-
   NORTHWEST OHIO

CITY           SKY/WX    TMP DP  RH WIND       PRES   REMARKS
DEFIANCE       LGT RAIN  48  47  96 SW8       29.62R FOG
FINDLAY        MOCLDY    49  45  86 SE7       29.62S FOG
TOLEDO EXPRESS FOG       37  37 100 CALM      29.62R VSB 1/4
TOLEDO EXEC    FOG       43  43 100 S7        29.63R VSB 1/4
LIMA           FOG       47  47 100 NW10      29.64R VSB 3/4
$$

OHZ009>014-019>023-028>033-038-089-220900-
   NORTHEAST OHIO

CITY           SKY/WX    TMP DP  RH WIND       PRES   REMARKS
CLE-HOPKINS    FAIR      56  49  77 S8        29.67S
CLE-LAKEFRONT  CLOUDY    56  51  84 SE13      29.64R
CUY CO. ARPT   NOT AVBL
LORAIN-ELYRIA  FAIR      51  47  86 S6        29.65S
ASHTABULA      CLOUDY    53  50  89 SW8       29.67S
AKRON-CANTON   CLOUDY    53  50  89 SE5       29.67S
WOOSTER        CLOUDY    50  48  93 CALM      29.66S
MANSFIELD      FAIR      51  50  96 S6        29.65F
YOUNGSTOWN     LGT RAIN  52  49  89 SE6       29.69F
$$

OHZ042-051>053-060>062-070>072-077>081-220900-
  SOUTHWEST OHIO

CITY           SKY/WX    TMP DP  RH WIND       PRES   REMARKS
CINC-COVINGTON FAIR      49  48  97 E8        29.58F
CINC-LUNKEN    FOG       44  44 100 CALM      29.60F VSB 1/4
HAMILTON       FAIR      43  43 100 CALM      29.61F FOG
DAYTON         FAIR      50  49  96 S3        29.63S FOG
WRIGHT-PAT AFB CLEAR     42  42 100 CALM      29.62F FOG
DAYTON GENERAL FAIR      50  48  93 CALM      29.61F
WILMINGTON     FAIR      51  49  92 SE5       29.62F
$$

OHZ036-037-039>041-045>050-054>059-063>069-073>076-082>088-220900-
  CENTRAL AND SOUTHEAST OHIO

CITY           SKY/WX    TMP DP  RH WIND       PRES   REMARKS
COLUMBUS       MOCLDY    53  51  93 CALM      29.64F
OSU AIRPORT    MOCLDY    51  51 100 SE3       29.63F
BOLTON FIELD   MOCLDY    50  50 100 CALM      29.64F
RICKENBACK AFB   N/A     51  50  97 CALM      29.63F
NEWARK         FOG       48  47  96 W3        29.65S VSB 1/4
MARION         FAIR      49  47  93 SE6       29.64S
LANCASTER      CLOUDY    53  51  93 S5        29.65F
ZANESVILLE     CLOUDY    51  49  92 SE3       29.66F
NEW PHILLY     CLOUDY    50  50 100 SE3       29.67F FOG
$$



USA.gov is the U.S. government's official web portal to all federal, state and local government web resources and services.